Hinckley, MN

4:45 AM CST on February 25, 2017 (GMT -0600)
Hinckley

Weather History for K04W - January, 2013

Change the Weather History Date:

Sunday, January 6, 2013

  Actual Average (KJMR) Record (KJMR)
Temperature  
Mean Temperature 16 °F -  
Max Temperature 23 °F 19 °F 44 °F (2012)
Min Temperature 10 °F -1 °F -36 °F (1988)
Degree Days  
Heating Degree Days 48    
Moisture  
Dew Point 9 °F    
Average Humidity 75    
Maximum Humidity 92    
Minimum Humidity 54    
Precipitation  
Precipitation 0.00 in - - ()
Sea Level Pressure  
Sea Level Pressure 30.09 in    
Wind  
Wind Speed 4 mph (WSW)    
Max Wind Speed 9 mph    
Max Gust Speed -    
Visibility 10 miles    
Events      
Averages and records for this station are not official NWS values.
T = Trace of Precipitation, MM = Missing Value Source: NWS Daily Summary

Daily Weather History Graph

Daily Weather History Graph

Search for Another Location

Airport or City:

Trip Planner

Search our weather history database for the weather conditions in past years. The results will help you decide how hot, cold, wet, or windy it might be!

Date:

Astronomy

Jan. 06, 2013 Rise Set
Actual Time 7:53 AM CST 4:42 PM CST
Civil Twilight 7:19 AM CST 5:16 PM CST
Nautical Twilight 6:41 AM CST 5:54 PM CST
Astronomical Twilight 6:05 AM CST 6:30 PM CST
Moon 2:00 AM CST (1/6) 12:16 PM CST (1/6)
Length of Visible Light 9h 57m
Length of Day
8h 49m
Waning Crescent, 33% of the Moon is Illuminated
Jan 6
Waning Crescent
Jan 11
New
Jan 18
First Quarter
Jan 26
Full
Feb 3
Last Quarter

Hourly Weather History & Observations

Time (CST) Temp. Windchill Dew Point Humidity Pressure Visibility Wind Dir Wind Speed Gust Speed Precip Events Conditions
12:15 AM 21.2 °F 10.9 °F 17.6 °F 86% 29.97 in 10.0 mi NW 9.2 mph - N/A   Scattered Clouds
12:35 AM 21.2 °F 12.6 °F 15.8 °F 80% 29.98 in 10.0 mi NNW 6.9 mph - N/A   Scattered Clouds
12:55 AM 19.4 °F 10.4 °F 15.8 °F 86% 29.99 in 10.0 mi NNW 6.9 mph - N/A   Scattered Clouds
1:15 AM 19.4 °F 14.3 °F 14.0 °F 80% 29.99 in 10.0 mi NW 3.5 mph - N/A   Scattered Clouds
1:35 AM 19.4 °F 14.3 °F 14.0 °F 80% 29.99 in 10.0 mi NW 3.5 mph - N/A   Clear
1:55 AM 19.4 °F - 15.8 °F 86% 29.99 in 10.0 mi Calm Calm - N/A   Mostly Cloudy
2:15 AM 19.4 °F 14.3 °F 14.0 °F 80% 30.01 in 10.0 mi WNW 3.5 mph - N/A   Mostly Cloudy
2:35 AM 19.4 °F 10.4 °F 14.0 °F 80% 30.01 in 10.0 mi NW 6.9 mph - N/A   Mostly Cloudy
2:55 AM 19.4 °F 12.8 °F 12.2 °F 74% 30.02 in 10.0 mi NW 4.6 mph - N/A   Mostly Cloudy
3:15 AM 17.6 °F 8.2 °F 12.2 °F 79% 30.03 in 10.0 mi NW 6.9 mph - N/A   Mostly Cloudy
3:35 AM 17.6 °F 9.3 °F 12.2 °F 79% 30.02 in 10.0 mi NW 5.8 mph - N/A   Overcast
3:55 AM 17.6 °F 12.3 °F 12.2 °F 79% 30.03 in 10.0 mi NW 3.5 mph - N/A   Overcast
4:15 AM 17.6 °F 9.3 °F 10.4 °F 73% 30.04 in 10.0 mi WNW 5.8 mph - N/A   Mostly Cloudy
4:35 AM 17.6 °F 10.7 °F 10.4 °F 73% 30.05 in 10.0 mi NW 4.6 mph - N/A   Scattered Clouds
4:55 AM 15.8 °F 8.6 °F 10.4 °F 79% 30.05 in 10.0 mi WNW 4.6 mph - N/A   Clear
5:15 AM 14.0 °F 6.5 °F 10.4 °F 86% 30.06 in 10.0 mi NW 4.6 mph - N/A   Clear
5:35 AM 14.0 °F 8.2 °F 10.4 °F 86% 30.07 in 10.0 mi NW 3.5 mph - N/A   Clear
5:55 AM 14.0 °F - 10.4 °F 86% 30.07 in 10.0 mi Calm Calm - N/A   Clear
6:35 AM 12.2 °F 6.1 °F 8.6 °F 85% 30.10 in 10.0 mi WNW 3.5 mph - N/A   Clear
6:55 AM 12.2 °F 4.3 °F 8.6 °F 85% 30.11 in 10.0 mi NW 4.6 mph - N/A   Clear
7:15 AM 10.4 °F 2.2 °F 8.6 °F 92% 30.11 in 10.0 mi NW 4.6 mph - N/A   Clear
7:35 AM 10.4 °F - 8.6 °F 92% 30.12 in 10.0 mi Calm Calm - N/A   Clear
7:55 AM 10.4 °F 4.0 °F 6.8 °F 85% 30.13 in 10.0 mi NW 3.5 mph - N/A   Clear
8:15 AM 10.4 °F 4.0 °F 6.8 °F 85% 30.13 in 10.0 mi NW 3.5 mph - N/A   Clear
8:35 AM 10.4 °F 4.0 °F 6.8 °F 85% 30.13 in 10.0 mi NW 3.5 mph - N/A   Clear
8:55 AM 10.4 °F - 6.8 °F 85% 30.14 in 10.0 mi Calm Calm - N/A   Clear
9:15 AM 12.2 °F 4.3 °F 6.8 °F 79% 30.15 in 10.0 mi NNW 4.6 mph - N/A   Clear
9:35 AM 12.2 °F 4.3 °F 6.8 °F 79% 30.16 in 10.0 mi NNW 4.6 mph - N/A   Clear
9:55 AM 12.2 °F 1.7 °F 6.8 °F 79% 30.16 in 10.0 mi NW 6.9 mph - N/A   Clear
10:15 AM 14.0 °F - 6.8 °F 73% 30.16 in 10.0 mi Calm Calm - N/A   Clear
10:35 AM 14.0 °F - 8.6 °F 79% 30.16 in 10.0 mi Calm Calm - N/A   Clear
10:55 AM 15.8 °F - 8.6 °F 73% 30.16 in 10.0 mi Calm Calm - N/A   Clear
11:15 AM 17.6 °F - 8.6 °F 68% 30.16 in 10.0 mi Calm Calm - N/A   Clear
11:35 AM 17.6 °F - 8.6 °F 68% 30.16 in 10.0 mi Calm Calm - N/A   Clear
11:55 AM 17.6 °F - 8.6 °F 68% 30.16 in 10.0 mi Calm Calm - N/A   Clear
12:15 PM 17.6 °F - 8.6 °F 68% 30.15 in 10.0 mi Calm Calm - N/A   Clear
12:35 PM 19.4 °F - 8.6 °F 63% 30.15 in 10.0 mi Calm Calm - N/A   Clear
12:55 PM 19.4 °F 14.3 °F 8.6 °F 63% 30.14 in 10.0 mi SSE 3.5 mph - N/A   Clear
1:15 PM 19.4 °F - 8.6 °F 63% 30.13 in 10.0 mi Calm Calm - N/A   Clear
1:35 PM 19.4 °F 14.3 °F 6.8 °F 58% 30.13 in 10.0 mi South 3.5 mph - N/A   Clear
1:55 PM 21.2 °F 16.4 °F 8.6 °F 58% 30.14 in 10.0 mi South 3.5 mph - N/A   Clear
2:15 PM 21.2 °F 16.4 °F 8.6 °F 58% 30.15 in 10.0 mi South 3.5 mph - N/A   Clear
2:35 PM 23.0 °F 17.0 °F 8.6 °F 54% 30.15 in 10.0 mi South 4.6 mph - N/A   Clear
2:55 PM 21.2 °F 13.6 °F 10.4 °F 63% 30.14 in 10.0 mi South 5.8 mph - N/A   Clear
3:15 PM 21.2 °F 14.9 °F 8.6 °F 58% 30.14 in 10.0 mi South 4.6 mph - N/A   Clear
3:35 PM 21.2 °F 13.6 °F 8.6 °F 58% 30.14 in 10.0 mi South 5.8 mph - N/A   Clear
3:55 PM 21.2 °F 13.6 °F 8.6 °F 58% 30.14 in 10.0 mi South 5.8 mph - N/A   Clear
4:15 PM 19.4 °F 12.8 °F 8.6 °F 63% 30.15 in 10.0 mi South 4.6 mph - N/A   Clear
4:35 PM 19.4 °F 11.5 °F 6.8 °F 58% 30.14 in 10.0 mi South 5.8 mph - N/A   Clear
4:55 PM 17.6 °F 12.3 °F 6.8 °F 63% 30.14 in 10.0 mi South 3.5 mph - N/A   Clear
5:15 PM 15.8 °F 10.2 °F 5.0 °F 62% 30.13 in 10.0 mi South 3.5 mph - N/A   Clear
5:35 PM 15.8 °F 10.2 °F 6.8 °F 68% 30.13 in 10.0 mi South 3.5 mph - N/A   Clear
5:55 PM 14.0 °F 8.2 °F 5.0 °F 67% 30.11 in 10.0 mi South 3.5 mph - N/A   Clear
6:15 PM 14.0 °F 8.2 °F 5.0 °F 67% 30.11 in 10.0 mi South 3.5 mph - N/A   Clear
6:35 PM 12.2 °F - 5.0 °F 73% 30.12 in 10.0 mi Calm Calm - N/A   Clear
6:55 PM 12.2 °F 6.1 °F 5.0 °F 73% 30.12 in 10.0 mi South 3.5 mph - N/A   Clear
7:35 PM 10.4 °F 4.0 °F 5.0 °F 79% 30.11 in 10.0 mi South 3.5 mph - N/A   Clear
7:55 PM 12.2 °F 4.3 °F 5.0 °F 73% 30.10 in 10.0 mi South 4.6 mph - N/A   Clear
8:15 PM 10.4 °F 0.8 °F 5.0 °F 79% 30.09 in 10.0 mi South 5.8 mph - N/A   Clear
8:55 PM 12.2 °F 6.1 °F 5.0 °F 73% 30.07 in 10.0 mi SSE 3.5 mph - N/A   Clear
9:55 PM 12.2 °F 6.1 °F 6.8 °F 79% 30.03 in 10.0 mi SSE 3.5 mph - N/A   Clear
10:15 PM 12.2 °F 4.3 °F 6.8 °F 79% 30.02 in 10.0 mi SE 4.6 mph - N/A   Clear
10:35 PM 10.4 °F 2.2 °F 6.8 °F 85% 30.00 in 10.0 mi SE 4.6 mph - N/A   Clear
10:55 PM 12.2 °F 2.9 °F 8.6 °F 85% 29.99 in 10.0 mi SE 5.8 mph - N/A   Clear
11:35 PM 12.2 °F 1.7 °F 8.6 °F 85% 29.98 in 10.0 mi South 6.9 mph - N/A   Clear
11:55 PM 12.2 °F 1.7 °F 8.6 °F 85% 29.97 in 10.0 mi South 6.9 mph - N/A   Clear